Regional Weather Roundup
Issued by NWS Albany, NY

Home | Current Version | Previous Version | Graphics & Text | Print | Product List | Glossary Off
Versions: 1 2 3 4 5 6 7 8 9 10 11 12 13 14 15 16 17 18 19 20 21 22 23 24 25 26 27 28

000
ASUS41 KALY 280210
RWRALY

NEW YORK STATE HOURLY WEATHER ROUNDUP
NATIONAL WEATHER SERVICE ALBANY NY
1000 PM EDT WED JUL 27 2016

NOTE: "FAIR" INDICATES FEW OR NO CLOUDS BELOW 12,000 FEET WITH NO
SIGNIFICANT WEATHER AND/OR NO OBSTRUCTIONS TO VISIBILITY.

NYZ032-033-038>043-046>054-057>066-NYZ062>081-082-084-280300-
EAST


CITY           SKY/WX    TMP DP  RH WIND       PRES   REMARKS
ALBANY         MOCLDY    77  61  57 CALM      29.91R
GLENS FALLS    CLEAR     71  64  78 CALM      29.89R
POUGHKEEPSIE   CLEAR     75  64  68 CALM      29.91R
NEWBURGH       CLEAR     75  64  69 W5        29.94R
MONTGOMERY     CLEAR     72  65  78 CALM      29.92S
WHITE PLAINS   PTCLDY    74  65  73 SE3       29.93R
ISLIP          PTCLDY    76  72  87 SW5       29.92R
NEW YORK CITY  MOCLDY    82  69  64 SE10      29.91R
CENTRAL PARK   CLOUDY    83  66  56 VRB3      29.94R
$$

NYZ005>009-017-018-044>046-055-056-280300-
CENTRAL


CITY           SKY/WX    TMP DP  RH WIND       PRES   REMARKS
FULTON         PTCLDY    75  66  73 CALM      29.90S
SYRACUSE       PTCLDY    76  64  66 CALM      29.90R
ROME           CLEAR     70  65  84 E3        29.92R
ELMIRA         CLEAR     71  61  70 CALM      29.94R
BINGHAMTON     CLEAR     75  57  53 NE3       29.98R
MONTICELLO     CLEAR     68  64  88 CALM      29.99S
$$

NYZ026>034-041>043-087-280300-
NORTH


CITY           SKY/WX    TMP DP  RH WIND       PRES   REMARKS
WATERTOWN      CLOUDY    76  61  59 CALM      29.88S
FORT DRUM      NOT AVBL
MASSENA        MOCLDY    74  60  61 SW5       29.86R
SARANAC LAKE   PTCLDY    65  56  72 CALM      29.94R
PLATTSBURGH    CLEAR     73  68  84 CALM      29.85R
$$

NYZ001>004-010>016-019>021-085-280300-
WEST


CITY           SKY/WX    TMP DP  RH WIND       PRES   REMARKS
NIAGARA FALLS  MOCLDY    76  66  71 CALM      29.93S
BUFFALO        MOCLDY    77  66  68 SW6       29.94S
DUNKIRK        CLEAR     69  63  81 S3        29.95S
JAMESTOWN      CLEAR     70  57  64 W3        30.01S
WELLSVILLE     CLEAR     73  59  61 N3        30.03S
ROCHESTER      PTCLDY    77  61  57 W6        29.93R
PENN YAN       CLEAR     77  62  59 W3        29.95R
$$

             KEY
       WCI = WIND CHILL INDEX
       VSB = VISIBILITY
       HX  = HEAT INDEX
$$




USA.gov is the U.S. government's official web portal to all federal, state and local government web resources and services.